Regional Weather Roundup
Issued by NWS

Home | Current Version | Previous Version | Text Only | Print | Product List | Glossary Off
Versions: 1 2 3 4 5 6 7 8 9 10 11 12 13 14 15 16 17 18 19 20 21 22 23 24 25 26 27 28 29 30 31 32 33 34 35 36 37 38 39 40 41 42 43 44 45 46 47 48 49 50

000
ASUS43 KMKX 090721
RWRWI

WISCONSIN REGIONAL WEATHER ROUNDUP
NATIONAL WEATHER SERVICE MILWAUKEE/SULLIVAN WI
100 AM CST FRI DEC 09 2016

NOTE: "FAIR" INDICATES FEW OR NO CLOUDS BELOW 12,000 FEET WITH NO
SIGNIFICANT WEATHER AND/OR OBSTRUCTIONS TO VISIBILITY.

WIZ001-002-006>008-014>016-023>028-090800-
NORTHWEST WISCONSIN

CITY           SKY/WX    TMP DP  RH WIND       PRES   REMARKS
SUPERIOR ARPT  CLEAR     14   7  75 NW12      30.49S WCI   0
ASHLAND        PTCLDY    14   8  77 NW7       30.43S WCI   4
HAYWARD        CLOUDY    16   8  71 VRB5      30.42R WCI   9
SIREN          CLOUDY    14  10  82 NW6       30.48S WCI   5
CUMBERLAND     CLEAR     14   9  79 NW8       30.44R WCI   3
RICE LAKE      CLEAR     15  10  78 W9        30.47R WCI   4
CHETEK         CLEAR     15  10  82 NW6       30.46R WCI   6
LADYSMITH      CLOUDY    19  13  76 NW9       30.42R WCI   8
EAU CLAIRE     CLEAR     17  11  77 NW8       30.46R WCI   7
MENOMONIE      CLEAR     17  13  84 W5        30.48R WCI  10
NEW RICHMOND   PTCLDY    15  11  82 NW7       30.49R WCI   6
OSCEOLA        CLEAR     16  11  83 W9        30.53S WCI   4
$$

WIZ003>005-009-010-017-018-090800-
NORTH CENTRAL WISCONSIN

CITY           SKY/WX    TMP DP  RH WIND       PRES   REMARKS
MANITOWISH WTR LGT SNOW  16  15  96 W5        30.32R WCI   9
ARBOR VITAE    LGT SNOW  19  15  83 NW9       30.32R WCI   8
WOODRUFF       LGT SNOW  19  15  83 NW9       30.32R WCI   8
RHINELANDER    CLOUDY    19  12  74 NW10      30.31R WCI   7
EAGLE RIVER    FLURRIES  16  11  81 N6        30.30R WCI   8
LAND O LAKES   CLOUDY    16  11  78 NW5       30.31R WCI   9
PHILLIPS       PTCLDY    15  11  82 NW6       30.35S WCI   7
TOMAHAWK       CLOUDY    18  11  73 NW7       30.35R WCI   9
MEDFORD        CLOUDY    18  12  78 NW7       30.35R WCI   9
MERRILL        FLURRIES  19  15  84 W7        30.35S WCI  10
$$

WIZ029-030-035-036-043>047-090800-
CENTRAL WISCONSIN

CITY           SKY/WX    TMP DP  RH WIND       PRES   REMARKS
WAUSAU         FLURRIES  18  14  84 W8        30.35R WCI   8
MOSINEE        CLOUDY    18  14  86 W8        30.37R WCI   7
MARSHFIELD     CLOUDY    17  10  74 W8        30.37R WCI   7
STEVENS POINT  CLEAR     17  11  77 W5        30.38S WCI  10
WAUPACA        CLEAR     22  15  72 W6        30.39R WCI  15
WAUTOMA        PTCLDY    21  14  74 NW9       30.40R WCI  11
WISC RAPIDS    CLEAR     18  12  77 W7        30.40S WCI   9
CAMP DOUGLAS   FLURRIES  22  17  81 W9        30.42R WCI  12
$$

WIZ011>013-019>022-031-037>040-048>050-090800-
NORTHEAST WISCONSIN

CITY           SKY/WX    TMP DP  RH WIND       PRES   REMARKS
ANTIGO         CLOUDY    17  13  86 NW9       30.31S WCI   5
SHAWANO        CLEAR     22  15  75 W6        30.36S WCI  15
OCONTO         PTCLDY    19  14  79 W7        30.34S WCI  10
STURGEON BAY   CLEAR     24  15  68 NW15G22   30.32R WCI  11
GREEN BAY      CLEAR     24  16  71 W12       30.35S WCI  13
MANITOWOC      CLEAR     23  16  74 W12       30.35S WCI  12
APPLETON       CLEAR     19  12  73 W8        30.35R WCI   9
CLINTONVILLE   CLEAR     21  14  73 NW8       30.36S WCI  12
OSHKOSH        CLEAR     20  14  77 W7        30.37R WCI  11
$$

WIZ032>034-041-042-053>061-090800-
SOUTHWEST WISCONSIN

CITY           SKY/WX    TMP DP  RH WIND       PRES   REMARKS
LA CROSSE      CLOUDY    24  15  68 NW13      30.48R WCI  12
SPARTA         FLURRIES  22  17  83 W6        30.46S WCI  14
VIROQUA        CLOUDY    19  16  88 NW6       30.43S WCI  11
BOSCOBEL       CLOUDY    23  16  74 W7        30.48S WCI  15
PRAIRIE DU CHI CLOUDY    21  14  73 W7        30.50S WCI  12
PLATTEVILLE    CLOUDY    20  17  87 W10       30.45F WCI   9
$$

WIZ056-057-062-063-064-067-068-090800-
SOUTH CENTRAL WISCONSIN

CITY           SKY/WX    TMP DP  RH WIND       PRES   REMARKS
REEDSBURG      FLURRIES  22  18  84 W8        30.43R WCI  13
BARABOO/DELLS  FLURRIES  22  17  80 W12       30.41S WCI  11
LONE ROCK      CLOUDY    23  16  74 W13       30.46R WCI  11
MINERAL POINT  FLURRIES  23  19  86 W12       30.42S WCI  12
MADISON        CLOUDY    22  17  81 W8        30.41R WCI  12
MIDDLETON      CLOUDY    24  19  80 NW9       30.42R WCI  14
WATERTOWN      CLEAR     19  17  92 W3        30.39S
MONROE         CLOUDY    21  18  86 W12       30.41S WCI   9
JANESVILLE     CLOUDY    23  19  86 W8        30.42S WCI  14
$$

WIZ051-052-058>065-066-070>072-090800-
SOUTHEAST WISCONSIN

CITY           SKY/WX    TMP DP  RH WIND       PRES   REMARKS
MILWAUKEE      MOCLDY    24  15  68 NW10      30.38R WCI  14
WAUKESHA       CLEAR     21  18  86 W9        30.39R WCI  11
MILWAUKEE/TIMM CLEAR     23  14  68 NW12      30.38R WCI  12
RACINE         CLOUDY    24  15  68 W9        30.40R WCI  14
BURLINGTON     CLOUDY    27  23  85 W6        30.40R WCI  20
KENOSHA        PTCLDY    20  15  81 W7        30.39R WCI  11
FOND DU LAC    CLEAR     21  13  71 W9        30.38R WCI  11
SHEBOYGAN      CLEAR     23  14  68 NW13      30.36R WCI  11
WEST BEND      PTCLDY    23  18  80 NW13      30.36S WCI  11
JUNEAU         CLEAR     18  13  82 CALM      30.40R
$$

LSZ147-162-090800-
LAKE SUPERIOR

STATION/POSITION TIME  TEMP    WIND        PRES    WAVE
                       AIR SEA DIR/SP/G            HT/PER
                 (UTC) (F)     (DEG/KT/KT) (MB)    (FT/S)
DEVILS ISLAND    0700   21     310/ 15/ 20 1031.4R
PORT WING        0630   21     340/ 16/ 20 1030.8S
SAXON HARBOR     0630   23     330/ 18/ 23 1029.5S
$$

LMZ867-665-643>646-090800-
LAKE MICHIGAN

STATION/POSITION TIME  TEMP    WIND        PRES    WAVE
                       AIR SEA DIR/SP/G            HT/PER
                 (UTC) (F)     (DEG/KT/KT) (MB)    (FT/S)
CHAMBERS ISLAND  0640   24     290/ 10/ 18 1026.1R
NORTHPORT PIER   0643   27     300/ 20     1025.7R
SISTER BAY       0650   25     330/ 23/ 27   N/A
ALGOMA LAKESHORE 0651          300/  9/ 13   N/A
KEWAUNEE LAKESHO 0654   23     320/  3/  7 1026.6R
SHEBOYGAN LAKESH 0700   24     300/ 13/ 15 1028.9R
PORT WASHINGTON  0640   24     300/  8/ 12 1029.1R
MILWAUKEE LAKESH 0630   25     300/ 11/ 14   N/A
KENOSHA   LAKESH 0700   22     270/ 11/ 15 1029.1
$$

TC  - TEMPERATURE IN CELSIUS
VSB - VISIBILITY IN STATUTE MILES
WCI - WIND CHILL INDEX
HX  - HEAT INDEX





USA.gov is the U.S. government's official web portal to all federal, state and local government web resources and services.